User: anonymous   Login
Location: Caltech
(34.1382°N, 118.1253°W)
Time: 14:05:26
(UTC-07:00)
Language:

KITSAT 1 - Orbit

View from above orbital plane
View from above orbital plane
View from above satellite
View from above satellite

Ground track
Ground track

The orbit data is extracted from the following two-line orbital elements,

1 22077U 92052B   16235.49376525 -.00000063  00000-0 -65979-5 0  9996
2 22077  66.0821 232.2145 0008807 212.6775 318.8656 12.86514622128965
Epoch (UTC): 22 August 2016 11:51:01
Eccentricity: 0.0008807
inclination: 66.0821°
perigee height: 1308 km
apogee height: 1322 km
right ascension of ascending node: 232.2145°
argument of perigee: 212.6775°
revolutions per day: 12.86514622
mean anomaly at epoch: 318.8656°
orbit number at epoch: 12896

The dashed part of the orbit path shows where the satellite is in the earth's shadow,  

DLR